Klundert, Netherlands
Current Conditions -  °F | °C
As of 7:25 AM on Sunday 26 Oct 2014 (Local Time) from EHWO Reporting Station
Overcast Overcast  
Wind Chill: 55°   Ceiling: 3800
Heat Index: 55°   Visibility: 6mi
Dew Point: 50°   Wind: 5mph
Humidity: 82%   Direction: 210°SSW
Pressure: 30.21"   Gusts: NA
Location:  51.66°N, 4.53°E
Report Text: EHWO 260525Z AUTO 21004KT 9999 OVC038 13/10 Q1023 BLU
Loading
Personal Weather Stations






























Interactive Weather Map
Tropical Storm Tracking
New forecast layout! Learn more

10-Day Weather Forecast

Advertisements
Track Severe Weather on mobile